Location: Rancho Del Sol Observatory
(38.7214°N, 120.6350°W)
Time: 13:07:22
(UTC-08:00)

Courier 1B Rocket - Pass Details

Date: 28 January 2020
Orbit: 920 x 1202 km, 28.2° (Epoch: 22 February)

Event Time Altitude Azimuth Distance (km) Brightness Sun altitude
Rises 08:39:46 0° 212° (SSW) 4,074 8.3 13.9°
Reaches altitude 10° 08:43:47 10° 194° (SSW) 3,089 8.0 14.6°
Maximum altitude 08:48:25 17° 156° (SSE) 2,546 8.6 15.3°
Drops below altitude 10° 08:52:56 10° 118° (ESE) 2,999 9.7 15.9°
Sets 08:56:44 0° 100° (E) 3,906 9.2 16.5°
